Lexington Weather

Lexington, Massachusetts, USA

78°F
7/25/2024 12:19pm 
  • Lexington Conditions: Mostly cloudy
  • Temperature: 77.7°F / 25.4°CWarmer 1.4°F than last hour.
  • Dew Point: 72.1°FIncreased 0.3°Fsince last hour.
  • Relative Humidity: 83%Decreased 3.0% since last hour.
  • Wind: Wind from WSW WSW 4 mph, 10-min avg: 2 mph, gust: 12 mph
  • Barometer: 29.94 in Steady
  • Visibility: 10 miles
  • Rain Today: 0.00 in
  •   

Regional Weather Roundup
for Boston, MA

        
000
ASUS41 KBOX 222310
RWRBOX

REGIONAL WEATHER ROUNDUP
NATIONAL WEATHER SERVICE BOSTON/NORTON MA
700 PM EDT MON JUL 22 2024

NOTE:  "FAIR" INDICATES FEW OR NO CLOUDS BELOW 12,000 FEET WITH NO 
SIGNIFICANT WEATHER AND/OR OBSTRUCTIONS TO VISIBILITY.

MAZALL-230000-
EASTERN MASSACHUSETTS
  
CITY           SKY/WX    TMP DP  RH WIND       PRES   REMARKS
BOSTON         CLOUDY    81  68  64 SW16      30.02F                  
BEVERLY        SUNNY     76  68  76 SE6       30.01F                  
LAWRENCE       SUNNY     82  65  56 SW10G18   30.03S                  
BEDFORD        SUNNY     80  68  66 SW10      30.01S                  
NORWOOD        MOSUNNY   82  69  64 SW10G20   30.04S                  
MARSHFIELD     SUNNY     79  64  61 SW8G16    30.04S                  
PLYMOUTH       SUNNY     79  63  57 SW12      30.05S                  
TAUNTON        SUNNY     80  65  59 SW8       30.05S                  
NEW BEDFORD    SUNNY     79  71  76 SW10      30.05F                  
$$

MAZALL-230000-
CAPE COD AND THE ISLANDS
  
CITY           SKY/WX    TMP DP  RH WIND       PRES   REMARKS
FALMOUTH       SUNNY     77  70  78 SW12      30.06R                  
HYANNIS        SUNNY     77  70  79 SW12      30.06S                  
CHATHAM        SUNNY     77  72  84 SW10G17   30.08S                  
PROVINCETOWN   SUNNY     75  69  81 SW16      30.06S                  
NANTUCKET      SUNNY     73  72  96 S8        30.08F                  
MARTHAS VNYRD  SUNNY     76  72  87 S8        30.07S                  
$$
 
MAZALL-230000-
CENTRAL AND WESTERN MASSACHUSETTS
  
CITY           SKY/WX    TMP DP  RH WIND       PRES   REMARKS
WORCESTER      PTSUNNY   77  68  73 SW15      30.07S                  
FITCHBURG      SUNNY     81  69  67 SW8       30.03F                  
ORANGE           N/A     79  68  69 S9        30.03F                  
SPRINGFIELD    PTSUNNY   79  69  71 S10       29.99F                  
WESTFIELD      MOSUNNY   78  70  76 S12       30.02F                  
NORTH ADAMS    MOSUNNY   80  65  59 CALM      30.01F                  
PITTSFIELD     MOSUNNY   74  66  76 S12G20    30.04S                  
$$
 
RIZALL-230000-
RHODE ISLAND
  
CITY           SKY/WX    TMP DP  RH WIND       PRES   REMARKS
PROVIDENCE     CLOUDY    77  66  68 S10       30.06S                  
NEWPORT        SUNNY     75  71  87 S7        30.06F                  
BLOCK ISLAND   SUNNY     75  72  90 S9          N/A                   
SMITHFIELD     SUNNY     75  69  81 VRB3      30.06F                  
WESTERLY       MOSUNNY   77  71  82 S7        30.06S                  
$$
 
CTZALL-230000-
CONNECTICUT
  
CITY           SKY/WX    TMP DP  RH WIND       PRES   REMARKS
BRADLEY INTL   CLOUDY    80  69  69 S9        30.03S                  
HARTFORD       PTSUNNY   78  70  76 S9        30.02F                  
PLAINVILLE     PTCLDY    78  71  80 S5        30.02F                  
BRIDGEPORT     MOSUNNY   79  70  74 S7        30.03F                  
DANBURY        MOSUNNY   78  68  71 VRB7      30.04F                  
GROTON         MOSUNNY   74  72  93 S7        30.04F                  
NEW HAVEN      MOSUNNY   80  73  79 S7        30.04F                  
CHESTER        MOSUNNY   77  73  88 S5        30.06S                  
MERIDEN        MOSUNNY   79  64  60 S6        30.03F                  
WILLIMANTIC    SUNNY     76  68  76 S7        30.05F                  
OXFORD         MOSUNNY   74  68  81 S7        30.06F                  
$$

MEZ002-015-021-024-NHZ003-005-008-011-012-014-VTZ005-008-230000-
NORTHERN NEW ENGLAND
  
CITY           SKY/WX    TMP DP  RH WIND       PRES   REMARKS
PORTLAND ME    SUNNY     73  61  65 S9        30.03S                  
BANGOR ME      PTSUNNY   74  58  57 S10       30.03R                  
CONCORD NH     MOSUNNY   82  63  52 SW6       30.01S                  
MANCHESTER NH  PTSUNNY   84  64  50 SW8       30.00S                  
NASHUA NH      MOSUNNY   81  69  67 CALM      30.02S                  
PORTSMOUTH NH  MOSUNNY   74  67  78 E9        30.01F                  
JAFFREY NH     SUNNY     80  66  62 S5        30.06S                  
KEENE NH       SUNNY     80  67  64 S7        30.01F                  
BURLINGTON VT  PTSUNNY   82  59  45 S5        29.97F                  
MT. WASHINGTON PTSUNNY   54  46  76 W15         N/A                   
$$

NYZ052-076-230000-
EASTERN NEW YORK
  
CITY           SKY/WX    TMP DP  RH WIND       PRES   REMARKS
ALBANY         CLOUDY    82  66  58 S8        29.98F                  
NEW YORK CITY  CLOUDY    81  69  67 SE13G21   30.01F                  
$$
 
ANZALL-230000-
MARINE OBSERVATIONS
  
STATION/POSITION TIME  TEMP    WIND        PRES    VSBY  WAVE
                       AIR SEA DIR/SP/G                  HT/PER
                 (UTC) (F)     (DEG/KT/KT) (MB)    (MI)  (FT/S)
BOSTON BUOY      2250   72 66  190/  8/ 10 1017.3R         1/10
BUZZARDS BAY     2200   73     200/ 11/ 11 1018.3F
NANTUCKET SOUND  2250   75 77  210/ 10/ 12 1017.9S         1/ 3
MASS BAY-STELLWA 2104   68 65  120/  6/  8 1017.2F  1 7/8  1/ 8
ISLE OF SHOALS   2200   69     130/ 14/ 15 1016.0F
S OF BLOCK IS    2256      74                N/A           3/ 8
$$

......................KEY.........................
  SKY/WX - SKY CONDITION/PRESENT WEATHER
  TMP    - TEMPERATURE IN FAHRENHEIT
  DWPT   - DEWPOINT IN FAHRENHEIT
  RH     - RELATIVE HUMIDITY IN PERCENT
  WIND   - DIRECTION AND SPEED IN MPH
  PRES   - MEAN SEA LEVEL PRESSURE IN INCHES OF HG
  WCI    - WIND CHILL INDEX
  VSB    - VISIBILITY IN MILES
  HX     - HEAT INDEX
  TC     - TEMPERATURE IN CELSIUS
  VRB    - VARIABLE WIND DIRECTION
  N/A    - NOT AVAILABLE
  
      

Other recent Regional Weather Roundups

Thu Jul 25, 11:10am EDT

Thu Jul 25, 10:10am EDT

Thu Jul 25, 9:10am EDT

Thu Jul 25, 8:10am EDT

Thu Jul 25, 7:10am EDT

Thu Jul 25, 6:10am EDT

Thu Jul 25, 5:10am EDT

Thu Jul 25, 4:10am EDT

Thu Jul 25, 3:10am EDT

Thu Jul 25, 2:10am EDT

Thu Jul 25, 1:10am EDT

Thu Jul 25, 12:10am EDT

Wed Jul 24, 11:10pm EDT

Wed Jul 24, 10:10pm EDT

Wed Jul 24, 9:10pm EDT

Wed Jul 24, 8:10pm EDT

Wed Jul 24, 7:10pm EDT

Wed Jul 24, 6:10pm EDT

Wed Jul 24, 5:10pm EDT

Wed Jul 24, 4:10pm EDT

Wed Jul 24, 3:10pm EDT

Wed Jul 24, 2:10pm EDT

Wed Jul 24, 1:10pm EDT

Wed Jul 24, 12:10pm EDT

Wed Jul 24, 11:10am EDT

Wed Jul 24, 10:10am EDT

Wed Jul 24, 9:10am EDT

Wed Jul 24, 8:10am EDT

Wed Jul 24, 7:10am EDT

Wed Jul 24, 6:10am EDT

Wed Jul 24, 5:10am EDT

Wed Jul 24, 4:10am EDT

Wed Jul 24, 3:10am EDT

Wed Jul 24, 2:10am EDT

Wed Jul 24, 1:10am EDT

Wed Jul 24, 12:10am EDT

Tue Jul 23, 11:10pm EDT

Tue Jul 23, 10:10pm EDT

Tue Jul 23, 9:10pm EDT

Tue Jul 23, 8:10pm EDT

Tue Jul 23, 7:10pm EDT

Tue Jul 23, 6:10pm EDT

Tue Jul 23, 5:10pm EDT

Tue Jul 23, 4:10pm EDT

Tue Jul 23, 3:10pm EDT

Tue Jul 23, 2:10pm EDT

Tue Jul 23, 1:10pm EDT

Tue Jul 23, 12:10pm EDT

Tue Jul 23, 11:10am EDT

Tue Jul 23, 10:10am EDT

Tue Jul 23, 10:10am EDT

Tue Jul 23, 9:10am EDT

Tue Jul 23, 8:10am EDT

Tue Jul 23, 7:10am EDT

Tue Jul 23, 6:10am EDT

Tue Jul 23, 5:10am EDT

Tue Jul 23, 4:10am EDT

Tue Jul 23, 3:10am EDT

Tue Jul 23, 2:10am EDT

Tue Jul 23, 1:10am EDT

Tue Jul 23, 12:10am EDT

Mon Jul 22, 11:10pm EDT

Mon Jul 22, 10:10pm EDT

Mon Jul 22, 9:10pm EDT

Mon Jul 22, 8:10pm EDT

Mon Jul 22, 6:10pm EDT

Mon Jul 22, 5:10pm EDT

Mon Jul 22, 4:10pm EDT

Mon Jul 22, 3:10pm EDT

Mon Jul 22, 2:10pm EDT

Mon Jul 22, 1:10pm EDT

Mon Jul 22, 12:10pm EDT

Mon Jul 22, 11:10am EDT

Mon Jul 22, 10:10am EDT

Mon Jul 22, 9:10am EDT

Mon Jul 22, 8:10am EDT

Mon Jul 22, 7:10am EDT

Mon Jul 22, 6:10am EDT

Mon Jul 22, 5:10am EDT

Mon Jul 22, 4:10am EDT

Mon Jul 22, 3:10am EDT

Mon Jul 22, 2:10am EDT

Mon Jul 22, 1:10am EDT

Mon Jul 22, 12:10am EDT

Sun Jul 21, 11:10pm EDT

Sun Jul 21, 10:10pm EDT

Sun Jul 21, 9:10pm EDT

Sun Jul 21, 8:10pm EDT

Sun Jul 21, 7:10pm EDT

Sun Jul 21, 6:10pm EDT

Sun Jul 21, 5:10pm EDT

Sun Jul 21, 4:10pm EDT

Sun Jul 21, 3:10pm EDT

Sun Jul 21, 2:10pm EDT

Sun Jul 21, 1:10pm EDT

Sun Jul 21, 12:10pm EDT

Sun Jul 21, 11:10am EDT

Sun Jul 21, 10:10am EDT

Sun Jul 21, 9:10am EDT

Sun Jul 21, 8:10am EDT

Sun Jul 21, 7:10am EDT

Sun Jul 21, 6:10am EDT

Sun Jul 21, 5:10am EDT

Sun Jul 21, 4:10am EDT

Sun Jul 21, 3:10am EDT

Sun Jul 21, 2:10am EDT

Sun Jul 21, 1:10am EDT

Sun Jul 21, 12:10am EDT

Sat Jul 20, 11:10pm EDT

Sat Jul 20, 10:10pm EDT

Sat Jul 20, 9:10pm EDT

Sat Jul 20, 8:10pm EDT

Sat Jul 20, 7:10pm EDT

Sat Jul 20, 6:10pm EDT

Sat Jul 20, 5:10pm EDT

Sat Jul 20, 4:10pm EDT

Sat Jul 20, 3:10pm EDT

Sat Jul 20, 2:10pm EDT

Sat Jul 20, 1:10pm EDT

Sat Jul 20, 12:10pm EDT

Sat Jul 20, 11:10am EDT

Sat Jul 20, 10:10am EDT

Sat Jul 20, 9:10am EDT

Sat Jul 20, 8:10am EDT

Sat Jul 20, 7:10am EDT

Sat Jul 20, 6:10am EDT

Sat Jul 20, 5:10am EDT

Sat Jul 20, 4:10am EDT

Sat Jul 20, 3:10am EDT

Sat Jul 20, 2:10am EDT

Sat Jul 20, 1:10am EDT

Sat Jul 20, 12:10am EDT

Fri Jul 19, 11:10pm EDT

Fri Jul 19, 10:10pm EDT

Fri Jul 19, 9:10pm EDT

Fri Jul 19, 8:10pm EDT

Fri Jul 19, 7:10pm EDT

Fri Jul 19, 6:10pm EDT

Fri Jul 19, 5:10pm EDT

Fri Jul 19, 4:10pm EDT

Fri Jul 19, 3:10pm EDT

Fri Jul 19, 2:10pm EDT

Fri Jul 19, 1:10pm EDT

Fri Jul 19, 12:10pm EDT

Fri Jul 19, 11:10am EDT

Fri Jul 19, 10:10am EDT

Fri Jul 19, 9:10am EDT

Fri Jul 19, 8:10am EDT

Fri Jul 19, 7:10am EDT

Fri Jul 19, 6:10am EDT

Fri Jul 19, 5:10am EDT

Fri Jul 19, 4:10am EDT

Fri Jul 19, 3:10am EDT

Fri Jul 19, 2:10am EDT

Fri Jul 19, 1:10am EDT

Fri Jul 19, 12:10am EDT

Thu Jul 18, 11:10pm EDT

Thu Jul 18, 10:10pm EDT

Thu Jul 18, 9:10pm EDT

Thu Jul 18, 8:10pm EDT

Thu Jul 18, 7:10pm EDT

Thu Jul 18, 6:10pm EDT

Thu Jul 18, 5:10pm EDT

Thu Jul 18, 4:10pm EDT

Thu Jul 18, 3:10pm EDT

Thu Jul 18, 2:10pm EDT

Thu Jul 18, 1:10pm EDT

Thu Jul 18, 12:10pm EDT